EW1710 Weather Reports


Display with metric or nautical units.
time (UTC)temp
F
wind
direction
speed
MPH
gust
MPH
rain 1hr
in
rain 24hr
in
rain mn
in
humidity
%
barometer
mb
20260904121956 68 136 0.0 0.0 0.00 0.00 0.00 98 1018.1
20260904121452 68 136 0.0 0.0 0.00 0.00 0.00 98 1017.8
20260904120948 68 136 1.0 1.0 0.00 0.00 0.00 98 1017.9
20260904120444 68 137 0.0 0.0 0.00 0.00 0.00 98 1017.9
20260904115938 68 136 0.0 0.0 0.00 0.00 0.00 98 1017.8
20260904115434 68 136 1.0 1.0 0.00 0.00 0.00 98 1018.1
20260904114933 68 136 0.0 0.0 0.00 0.00 0.00 98 1018.0
20260904114433 68 136 1.0 1.0 0.00 0.00 0.00 98 1018.1
20260904113929 67 135 0.0 0.0 0.00 0.00 0.00 98 1018.1
20260904113428 67 135 0.0 0.0 0.00 0.00 0.00 98 1017.9
20260904112927 67 135 0.0 0.0 0.00 0.00 0.00 98 1017.9
20260904112424 67 135 0.0 0.0 0.00 0.00 0.00 98 1017.9
20260904111919 67 135 0.0 0.0 0.00 0.00 0.00 98 1017.9
20260904111414 67 135 0.0 0.0 0.00 0.00 0.00 98 1017.7
20260904110910 67 135 0.0 0.0 0.00 0.00 0.00 98 1017.6
20260904110409 67 135 0.0 0.0 0.00 0.00 0.00 98 1017.9
20260904105904 67 136 1.0 1.0 0.00 0.00 0.00 98 1017.5
20260904105359 67 136 0.0 0.0 0.00 0.00 0.00 98 1017.6
20260904104854 67 135 0.0 0.0 0.00 0.00 0.00 98 1017.7
20260904104349 67 124 0.0 0.0 0.00 0.00 0.00 98 1017.5
20260904103847 67 124 0.0 0.0 0.00 0.00 0.00 98 1017.6
20260904103346 67 124 0.0 0.0 0.00 0.00 0.00 98 1017.6
20260904102842 67 124 0.0 0.0 0.00 0.00 0.00 98 1017.4
20260904102337 66 124 0.0 0.0 0.00 0.00 0.00 98 1017.7
20260904101833 66 124 0.0 0.0 0.00 0.00 0.00 98 1017.4
20260904101330 66 138 0.0 0.0 0.00 0.00 0.00 98 1017.2
20260904100825 66 152 0.0 0.0 0.00 0.00 0.00 98 1017.2
20260904100321 66 135 0.0 0.0 0.00 0.00 0.00 98 1017.4
20260904095815 66 135 0.0 0.0 0.00 0.00 0.00 98 1017.4
20260904095310 66 136 0.0 0.0 0.00 0.00 0.00 98 1017.5
20260904094805 66 136 0.0 0.0 0.00 0.00 0.00 98 1018.0
20260904094301 66 136 0.0 0.0 0.00 0.00 0.00 98 1017.9
20260904093757 66 136 0.0 0.0 0.00 0.00 0.00 98 1018.0
20260904093256 66 136 0.0 0.0 0.00 0.00 0.00 98 1017.9
20260904092752 66 136 0.0 0.0 0.00 0.00 0.00 98 1017.7
20260904092248 66 136 0.0 0.0 0.00 0.00 0.00 98 1017.7
20260904091744 66 136 0.0 0.0 0.00 0.00 0.00 98 1017.4
20260904091238 66 136 0.0 0.0 0.00 0.00 0.00 98 1017.3
20260904090734 66 136 0.0 0.0 0.00 0.00 0.00 98 1017.5
20260904090230 66 136 0.0 0.0 0.00 0.00 0.00 98 1017.4
20260904085724 66 136 0.0 0.0 0.00 0.00 0.00 98 1017.3
20260904085219 67 136 0.0 0.0 0.00 0.00 0.00 98 1017.4
20260904084714 67 136 1.0 1.0 0.00 0.00 0.00 98 1017.5
20260904084210 67 136 0.0 0.0 0.00 0.00 0.00 98 1017.5
20260904083707 67 136 0.0 0.0 0.00 0.00 0.00 98 1017.2
20260904083203 67 136 0.0 0.0 0.00 0.00 0.00 98 1017.2
20260904082657 67 135 1.0 1.0 0.00 0.00 0.00 98 1017.3
20260904082152 67 135 0.0 0.0 0.00 0.00 0.00 98 1017.3
20260904081643 67 135 0.0 0.0 0.00 0.00 0.00 98 1017.3
20260904081138 67 136 0.0 0.0 0.00 0.00 0.00 98 1017.5
20260904080634 67 136 0.0 0.0 0.00 0.00 0.00 98 1017.5
20260904080129 67 135 0.0 0.0 0.00 0.00 0.00 98 1017.6
20260904075625 67 135 0.0 0.0 0.00 0.00 0.00 98 1017.5
20260904075125 67 136 0.0 0.0 0.00 0.00 0.00 98 1017.5
20260904074619 67 135 0.0 0.0 0.00 0.00 0.00 98 1017.6
20260904074113 68 135 0.0 0.0 0.00 0.00 0.00 98 1017.8
20260904073608 68 135 0.0 0.0 0.00 0.00 0.00 98 1017.7
20260904073104 68 135 0.0 0.0 0.00 0.00 0.00 98 1017.8
20260904072559 68 135 0.0 0.0 0.00 0.00 0.00 98 1017.7
20260904072055 68 135 0.0 0.0 0.00 0.00 0.00 98 1017.9
20260904071550 68 135 0.0 0.0 0.00 0.00 0.00 98 1017.8
20260904071045 68 135 0.0 0.0 0.00 0.00 0.00 98 1017.6
20260904070544 68 135 0.0 0.0 0.00 0.00 0.00 98 1017.8
20260904070039 68 136 0.0 0.0 0.00 0.00 0.00 98 1017.8
20260904065534 68 136 1.0 1.0 0.00 0.00 0.00 97 1017.9
20260904065030 68 135 0.0 0.0 0.00 0.00 0.00 97 1017.8
20260904064526 68 135 0.0 0.0 0.00 0.00 0.00 97 1017.6
20260904064021 68 135 0.0 0.0 0.00 0.00 0.00 97 1017.7
20260904063517 68 135 0.0 0.0 0.00 0.00 0.00 97 1017.6
20260904063012 68 136 0.0 0.0 0.00 0.00 0.00 97 1017.7
20260904062508 68 136 0.0 0.0 0.00 0.00 0.00 97 1018.0
20260904062004 68 135 1.0 0.0 0.00 0.00 0.00 97 1018.0
20260904061500 68 136 0.0 0.0 0.00 0.00 0.00 97 1017.7
20260904060955 68 135 0.0 0.0 0.00 0.00 0.00 97 1017.9
20260904060451 68 167 0.0 0.0 0.00 0.00 0.00 97 1017.9
20260904055947 68 168 0.0 0.0 0.00 0.00 0.00 97 1017.5
20260904055442 68 168 0.0 0.0 0.00 0.00 0.00 97 1017.9
20260904054938 68 168 0.0 0.0 0.00 0.00 0.00 97 1017.9
20260904054433 68 199 0.0 0.0 0.00 0.00 0.00 97 1017.7
20260904053929 68 225 0.0 0.0 0.00 0.00 0.00 97 1017.8
20260904053428 68 225 0.0 0.0 0.00 0.00 0.00 97 1017.9
20260904052924 68 225 0.0 0.0 0.00 0.00 0.00 97 1017.6
20260904052420 68 225 0.0 0.0 0.00 0.00 0.00 97 1017.5
20260904051916 68 225 0.0 0.0 0.00 0.00 0.00 97 1017.7
20260904051412 68 225 0.0 0.0 0.00 0.00 0.00 97 1017.7
20260904050906 68 227 1.0 1.0 0.00 0.00 0.00 97 1017.7
20260904050403 68 104 0.0 0.0 0.00 0.00 0.00 97 1017.7
20260904045903 67 133 0.0 0.0 0.00 0.00 0.00 96 1017.6
20260904045358 68 133 0.0 0.0 0.00 0.00 0.00 96 1017.5
20260904044857 68 134 0.0 0.0 0.00 0.00 0.00 96 1017.5
20260904044354 68 133 0.0 0.0 0.00 0.00 0.00 96 1017.4
20260904043852 68 133 0.0 0.0 0.00 0.00 0.00 96 1017.5
20260904043347 68 133 0.0 0.0 0.00 0.00 0.00 96 1017.5
20260904042841 68 114 0.0 0.0 0.00 0.00 0.00 96 1017.4
20260904042337 68 114 0.0 0.0 0.00 0.00 0.00 96 1017.6
20260904041832 68 101 0.0 0.0 0.00 0.00 0.00 96 1017.4
20260904041328 68 118 0.0 0.0 0.00 0.00 0.00 96 1017.3
20260904040824 69 80 1.0 2.0 0.00 0.00 0.00 96 1017.2
20260904040319 69 93 0.0 0.0 0.00 0.00 0.00 96 1017.1
20260904035815 69 51 3.0 6.0 0.00 0.96 0.96 96 1017.1
20260904035311 68 158 1.0 1.0 0.00 0.96 0.96 96 1017.3
20260904034809 68 106 2.0 3.0 0.00 0.96 0.96 97 1017.3
20260904034306 68 67 1.0 1.0 0.00 0.96 0.96 96 1017.0
20260904033801 68 152 2.0 2.0 0.07 0.96 0.96 96 1016.9
20260904033258 68 161 3.0 6.0 0.35 0.96 0.96 96 1016.9
20260904032753 68 179 2.0 2.0 0.59 0.95 0.95 96 1017.6
20260904032252 68 181 1.0 1.0 0.35 0.90 0.90 96 1017.7
20260904031741 68 167 0.0 0.0 0.05 0.85 0.85 96 1018.2
20260904031236 68 4 2.0 2.0 0.00 0.84 0.84 96 1017.7
20260904030726 68 100 0.0 0.0 0.00 0.84 0.84 96 1017.4
20260904030222 68 103 0.0 0.0 0.00 0.84 0.84 96 1017.1
20260904025719 68 166 1.0 1.0 0.00 0.84 0.84 96 1016.9
20260904025213 68 169 1.0 1.0 0.00 0.84 0.84 96 1017.2
20260904024709 68 168 2.0 2.0 0.00 0.84 0.84 96 1017.1
20260904024204 68 180 1.0 1.0 0.00 0.84 0.84 96 1017.2
20260904023700 68 73 2.0 3.0 0.00 0.84 0.84 96 1017.3
20260904023155 68 136 1.0 1.0 0.00 0.84 0.84 96 1017.1
20260904022649 68 137 0.0 0.0 0.00 0.84 0.84 96 1017.1
20260904022146 68 118 2.0 2.0 0.00 0.84 0.84 96 1017.2
20260904021642 68 100 3.0 3.0 0.00 0.84 0.84 96 1017.2
20260904021136 68 103 1.0 1.0 0.00 0.84 0.84 96 1016.9
20260904020633 68 185 1.0 1.0 0.00 0.84 0.84 96 1016.7
20260904020127 68 176 2.0 5.0 0.00 0.84 0.84 96 1016.7
20260904015626 68 90 1.0 1.0 0.00 0.84 0.84 96 1016.9
20260904015125 68 157 1.0 1.0 0.00 0.84 0.84 96 1016.8
20260904014625 68 176 3.0 5.0 0.00 0.84 0.84 96 1016.2
20260904014120 68 168 2.0 2.0 0.00 0.84 0.84 96 1016.6
20260904013617 68 155 1.0 1.0 0.00 0.84 0.84 96 1016.6
20260904013113 68 178 3.0 5.0 0.00 0.84 0.84 96 1016.8
20260904012608 68 100 4.0 6.0 0.00 0.84 0.84 96 1016.8
20260904012107 68 90 2.0 3.0 0.00 0.84 0.84 96 1016.9
20260904011606 68 172 6.0 7.0 0.00 0.84 0.84 96 1016.7
20260904011102 68 134 1.0 2.0 0.00 0.84 0.84 96 1016.9
20260904010558 68 177 1.0 2.0 0.00 0.84 0.84 96 1016.8
20260904010054 68 151 3.0 3.0 0.00 0.84 0.84 96 1016.8
20260904005554 68 172 3.0 2.0 0.00 0.84 0.84 96 1017.0
20260904005049 68 75 1.0 1.0 0.00 0.84 0.84 96 1017.0
20260904004545 68 155 1.0 1.0 0.00 0.84 0.84 96 1016.8
20260904004040 68 122 0.0 0.0 0.00 0.84 0.84 96 1017.0
20260904003536 68 164 0.0 1.0 0.00 0.84 0.84 96 1016.9
20260904003032 68 174 1.0 1.0 0.00 0.84 0.84 96 1016.9
20260904002527 68 133 3.0 3.0 0.00 0.84 0.84 96 1016.9
20260904002027 68 133 0.0 1.0 0.00 0.84 0.84 96 1017.2
20260904001523 68 145 0.0 0.0 0.00 0.84 0.84 96 1017.4
20260904001021 68 156 2.0 2.0 0.00 0.84 0.84 96 1017.4
20260904000521 68 127 1.0 2.0 0.00 0.84 0.84 96 1017.4
20260904000017 68 127 2.0 2.0 0.00 0.84 0.84 96 1017.6
20260903235512 68 151 1.0 1.0 0.00 0.84 0.84 96 1017.6
20260903235008 68 157 1.0 1.0 0.00 0.84 0.84 96 1017.8
20260903234503 68 104 0.0 0.0 0.07 0.84 0.84 96 1017.8
20260903233959 69 164 1.0 2.0 0.14 0.84 0.84 96 1017.9
20260903233454 69 76 0.0 0.0 0.12 0.83 0.83 96 1018.5
20260903232949 69 80 0.0 0.0 0.17 0.82 0.82 95 1018.6
20260903232444 69 90 0.0 0.0 0.24 0.81 0.81 95 1018.7
20260903231944 69 123 0.0 0.0 0.19 0.79 0.79 95 1019.2
20260903231439 68 108 1.0 0.0 0.42 0.77 0.77 95 1019.3
20260903230933 68 22 1.0 1.0 0.59 0.76 0.76 95 1019.5
20260903230429 68 94 0.0 0.0 0.54 0.71 0.71 95 1019.8
20260903225925 68 238 0.0 1.0 0.73 0.66 0.66 94 1020.1
20260903225421 68 196 3.0 5.0 0.97 0.61 0.61 94 1020.1
20260903224917 68 244 5.0 6.0 1.25 0.54 0.54 94 1019.4
20260903224413 69 312 3.0 3.0 1.18 0.45 0.45 93 1019.5
20260903223909 69 262 3.0 3.0 0.73 0.31 0.31 92 1018.9
20260903223408 70 8 2.0 2.0 0.71 0.24 0.24 90 1018.6
20260903222907 72 191 2.0 3.0 0.47 0.19 0.19 87 1019.2
20260903222402 76 256 10.0 18.0 0.07 0.12 0.12 80 1019.3
20260903221857 77 314 6.0 7.0 0.00 0.11 0.11 86 1017.9
20260903221355 77 109 0.0 0.0 0.00 0.11 0.11 86 1016.8
20260903220854 77 93 0.0 0.0 0.00 0.11 0.11 86 1016.3
20260903220348 77 74 1.0 1.0 0.00 0.11 0.11 88 1016.1
20260903215846 78 13 0.0 0.0 0.00 0.11 0.11 87 1015.9
20260903215338 78 15 0.0 0.0 0.05 0.11 0.11 86 1015.7
20260903214835 79 73 0.0 0.0 0.05 0.11 0.11 84 1015.7
20260903214332 80 338 4.0 5.0 0.00 0.10 0.10 79 1015.8
20260903213825 80 130 0.0 0.0 0.00 0.10 0.10 80 1016.0
20260903213321 82 288 1.0 1.0 0.00 0.10 0.10 78 1016.5
20260903212817 82 269 3.0 3.0 0.00 0.10 0.10 74 1016.1
20260903212313 83 329 3.0 3.0 0.00 0.10 0.10 73 1015.9
20260903211812 84 303 1.0 1.0 0.00 0.10 0.10 73 1015.6
20260903211309 84 310 1.0 1.0 0.00 0.10 0.10 72 1015.7
20260903210805 85 240 1.0 0.0 0.00 0.10 0.10 72 1015.5
20260903210259 85 266 2.0 2.0 0.00 0.10 0.10 71 1015.3
20260903205753 86 5 1.0 1.0 0.00 0.10 0.10 71 1014.9
20260903205254 87 57 0.0 0.0 0.00 0.10 0.10 68 1014.7
20260903204749 87 13 1.0 1.0 0.00 0.10 0.10 66 1014.7
20260903204245 87 142 2.0 2.0 0.00 0.10 0.10 66 1014.7
20260903203740 88 86 1.0 1.0 0.00 0.10 0.10 66 1015.0
20260903203236 89 341 2.0 2.0 0.00 0.10 0.10 68 1015.0
20260903202734 88 221 1.0 2.0 0.00 0.10 0.10 67 1014.9
20260903202231 86 49 0.0 0.0 0.00 0.10 0.10 72 1014.9
20260903201730 86 293 1.0 1.0 0.00 0.10 0.10 70 1014.9
20260903201226 86 49 2.0 2.0 0.00 0.10 0.10 71 1014.7
20260903200724 86 36 1.0 1.0 0.00 0.10 0.10 70 1015.1
20260903200220 86 248 1.0 1.0 0.00 0.10 0.10 69 1015.0
20260903195715 87 259 3.0 5.0 0.00 0.10 0.10 66 1015.1
20260903195212 87 119 1.0 1.0 0.00 0.10 0.10 69 1015.2
20260903194711 87 332 3.0 5.0 0.00 0.10 0.10 69 1015.4
20260903194207 86 311 1.0 1.0 0.00 0.10 0.10 71 1015.4
20260903193703 87 12 3.0 5.0 0.00 0.10 0.10 68 1015.7
20260903193203 91 204 4.0 9.0 0.00 0.10 0.10 63 1015.7
20260903192659 94 332 3.0 2.0 0.00 0.10 0.10 57 1015.2
20260903192154 93 306 5.0 6.0 0.00 0.10 0.10 57 1015.1
20260903191650 92 6 3.0 3.0 0.00 0.10 0.10 57 1015.2
20260903191150 92 343 4.0 5.0 0.00 0.10 0.10 56 1015.2
20260903190645 94 354 4.0 5.0 0.00 0.10 0.10 53 1015.2
20260903190145 94 335 3.0 3.0 0.00 0.10 0.10 55 1015.6
20260903185640 93 328 4.0 7.0 0.00 0.10 0.10 54 1015.6
20260903185135 93 319 3.0 3.0 0.00 0.10 0.10 55 1015.9
20260903184631 93 47 1.0 1.0 0.00 0.10 0.10 55 1016.1
20260903184127 93 330 3.0 5.0 0.00 0.10 0.10 55 1016.2
20260903183625 93 105 2.0 2.0 0.00 0.10 0.10 53 1015.8
20260903183121 93 271 3.0 3.0 0.00 0.10 0.10 57 1016.0
20260903182620 93 278 1.0 1.0 0.00 0.10 0.10 55 1016.0
20260903182116 93 22 3.0 3.0 0.00 0.10 0.10 57 1016.2
20260903181615 92 342 2.0 3.0 0.00 0.10 0.10 56 1016.2
20260903181114 92 263 5.0 6.0 0.00 0.10 0.10 56 1016.5
20260903180610 92 220 2.0 2.0 0.00 0.10 0.10 57 1016.6
20260903180104 92 325 2.0 2.0 0.00 0.10 0.10 59 1016.1
20260903175603 91 325 3.0 3.0 0.00 0.10 0.10 58 1016.6
20260903175103 91 305 4.0 5.0 0.00 0.10 0.10 56 1016.7
20260903174558 90 321 3.0 3.0 0.00 0.10 0.10 59 1016.7
20260903174052 91 326 5.0 6.0 0.00 0.10 0.10 58 1016.9
20260903173547 92 117 0.0 1.0 0.00 0.10 0.10 59 1016.8
20260903173045 92 177 3.0 3.0 0.00 0.10 0.10 58 1017.1
20260903172544 91 125 1.0 2.0 0.00 0.10 0.10 60 1016.9
20260903172040 91 332 3.0 3.0 0.00 0.10 0.10 62 1017.0
20260903171534 92 338 5.0 7.0 0.00 0.10 0.10 59 1017.1
20260903171030 91 305 1.0 1.0 0.00 0.10 0.10 63 1017.2
20260903170529 91 232 3.0 3.0 0.00 0.10 0.10 62 1017.4
20260903170025 91 328 3.0 5.0 0.00 0.10 0.10 61 1017.4
20260903165517 91 34 2.0 2.0 0.00 0.10 0.10 62 1017.1
20260903165013 91 179 1.0 1.0 0.00 0.10 0.10 61 1017.1
20260903164512 90 209 2.0 2.0 0.00 0.10 0.10 63 1017.2
20260903164008 90 141 5.0 6.0 0.00 0.10 0.10 62 1017.4
20260903163503 90 149 3.0 3.0 0.00 0.10 0.10 64 1017.5
20260903162958 91 267 4.0 6.0 0.00 0.10 0.10 63 1017.6
20260903162449 90 196 2.0 1.0 0.00 0.10 0.10 66 1017.3
20260903161944 90 168 3.0 3.0 0.00 0.10 0.10 63 1017.6
20260903161434 89 281 1.0 2.0 0.00 0.10 0.10 67 1017.5
20260903160930 89 351 1.0 1.0 0.00 0.10 0.10 66 1017.4
20260903160429 89 177 1.0 1.0 0.00 0.10 0.10 65 1017.5
20260903155928 89 161 2.0 3.0 0.00 0.10 0.10 65 1017.6
20260903155423 87 129 1.0 2.0 0.00 0.10 0.10 67 1017.6
20260903154919 87 291 1.0 1.0 0.00 0.10 0.10 70 1017.5
20260903154414 86 318 1.0 1.0 0.00 0.10 0.10 72 1017.6
20260903153909 86 218 2.0 2.0 0.00 0.10 0.10 71 1017.5
20260903153404 86 155 0.0 0.0 0.00 0.10 0.10 71 1017.7
20260903152901 86 74 1.0 1.0 0.00 0.10 0.10 72 1017.7
20260903152356 86 56 1.0 1.0 0.00 0.10 0.10 71 1017.5
20260903151852 85 159 2.0 2.0 0.00 0.10 0.10 71 1017.7
20260903151346 84 161 1.0 1.0 0.00 0.10 0.10 74 1017.5
20260903150841 84 55 1.0 1.0 0.00 0.10 0.10 75 1017.7
20260903150335 84 47 1.0 1.0 0.00 0.10 0.10 75 1017.5
20260903145830 83 84 0.0 0.0 0.00 0.10 0.10 74 1017.6
20260903145326 83 104 0.0 1.0 0.00 0.10 0.10 77 1017.8
20260903144825 83 129 2.0 3.0 0.00 0.10 0.10 76 1017.7
20260903144320 83 233 2.0 3.0 0.00 0.10 0.10 75 1017.5
20260903143816 82 16 3.0 3.0 0.00 0.10 0.10 75 1017.7
20260903143312 82 190 1.0 1.0 0.00 0.10 0.10 76 1017.8
20260903142808 83 70 3.0 3.0 0.00 0.10 0.10 75 1017.7
20260903142306 83 60 1.0 1.0 0.00 0.10 0.10 75 1017.9
20260903141759 83 130 1.0 1.0 0.00 0.10 0.10 74 1017.7
20260903141255 84 95 1.0 1.0 0.00 0.10 0.10 74 1017.8
20260903140754 83 150 4.0 5.0 0.00 0.10 0.10 72 1017.5
20260903140249 83 37 3.0 3.0 0.00 0.10 0.10 74 1017.6
20260903135745 83 145 4.0 5.0 0.00 0.10 0.10 73 1017.7
20260903135240 84 221 1.0 1.0 0.00 0.10 0.10 72 1017.7
20260903134739 83 116 0.0 0.0 0.00 0.10 0.10 75 1017.7
20260903134235 82 137 0.0 0.0 0.00 0.10 0.10 75 1017.7
20260903133732 82 92 1.0 1.0 0.00 0.10 0.10 78 1017.8
20260903133229 80 76 1.0 1.0 0.00 0.10 0.10 80 1017.5
20260903132723 80 131 1.0 2.0 0.00 0.10 0.10 79 1017.9
20260903132218 80 83 1.0 1.0 0.00 0.10 0.10 80 1018.0
20260903131713 79 83 0.0 0.0 0.00 0.10 0.10 82 1017.8
20260903131212 78 81 1.0 1.0 0.00 0.10 0.10 82 1017.7
20260903130707 77 94 1.0 1.0 0.00 0.10 0.10 82 1017.8
20260903130202 76 94 1.0 1.0 0.00 0.10 0.10 85 1018.0
20260903125700 76 89 2.0 2.0 0.00 0.10 0.10 84 1017.9
20260903125155 76 76 2.0 2.0 0.00 0.10 0.10 83 1018.2
20260903124650 77 86 0.0 1.0 0.00 0.10 0.10 86 1018.1
20260903124149 76 100 1.0 1.0 0.00 0.10 0.10 86 1018.0
20260903123649 75 99 1.0 1.0 0.00 0.10 0.10 86 1018.1
20260903123148 74 99 0.0 0.0 0.00 0.10 0.10 87 1018.0
20260903122642 73 119 0.0 0.0 0.00 0.10 0.10 89 1018.1